BTK6606 WARR-WAFF

Flight info

Callsign BTK6606
Flight time 1h 48m
Altitude 40000
Route RAMPY2F RAMPY T13 IKAPI W31 BDM W18 BPN W36 EMSIV EMSIV1B
Aircraft B738/M-SDFGHIRWY/EB2

Departure

Time 2026-04-29 00:27
Airport Juanda International Airport (WARR)

Arrival

Time 2026-04-29 02:16
Airport Mutiara - SIS Al-Jufrie Airport (WAFF)
Time Latitude Longitude Altitude Speed Heading
2026-04-29 00:08 -7.38251 112.77674 -9 ft 0 kts 179°
2026-04-29 00:19 -7.38236 112.77674 19 ft 3 kts 184°
2026-04-29 00:20 -7.38216 112.77677 22 ft 3 kts 196°
2026-04-29 00:20 -7.38199 112.77684 22 ft 3 kts 229°
2026-04-29 00:20 -7.38192 112.77692 21 ft 2 kts 297°
2026-04-29 00:20 -7.38194 112.77696 21 ft 0 kts 310°
2026-04-29 00:23 -7.38174 112.77660 19 ft 8 kts 281°
2026-04-29 00:23 -7.38158 112.77606 19 ft 8 kts 307°
2026-04-29 00:23 -7.38108 112.77590 19 ft 8 kts
2026-04-29 00:23 -7.38053 112.77597 19 ft 8 kts
2026-04-29 00:24 -7.38007 112.77577 19 ft 7 kts 314°
2026-04-29 00:24 -7.37990 112.77529 20 ft 7 kts 281°
2026-04-29 00:24 -7.37981 112.77481 19 ft 7 kts 278°
2026-04-29 00:24 -7.37974 112.77432 19 ft 7 kts 278°
2026-04-29 00:25 -7.37967 112.77385 19 ft 7 kts 278°
2026-04-29 00:25 -7.37961 112.77339 19 ft 7 kts 278°
2026-04-29 00:25 -7.37944 112.77296 21 ft 7 kts 312°
2026-04-29 00:25 -7.37889 112.77287 22 ft 9 kts 16°
2026-04-29 00:26 -7.37833 112.77315 20 ft 9 kts 37°
2026-04-29 00:26 -7.37798 112.77365 19 ft 9 kts 60°
2026-04-29 00:26 -7.37778 112.77421 19 ft 9 kts 93°
2026-04-29 00:26 -7.37794 112.77556 19 ft 44 kts 98°
2026-04-29 00:27 -7.37885 112.78118 18 ft 115 kts 98°
2026-04-29 00:27 -7.38055 112.79102 38 ft 169 kts 100°
2026-04-29 00:27 -7.38259 112.80310 673 ft 171 kts 96°
2026-04-29 00:27 -7.38392 112.81419 1780 ft 150 kts 97°
2026-04-29 00:28 -7.38556 112.82473 2296 ft 161 kts 99°
2026-04-29 00:28 -7.38769 112.83662 2636 ft 184 kts 99°
2026-04-29 00:28 -7.38962 112.84992 3096 ft 197 kts 97°
2026-04-29 00:28 -7.39157 112.86385 3536 ft 206 kts 97°
2026-04-29 00:29 -7.39383 112.87872 3746 ft 232 kts 99°
2026-04-29 00:29 -7.39682 112.89570 4034 ft 252 kts 99°
2026-04-29 00:29 -7.39926 112.91330 4605 ft 260 kts 88°
2026-04-29 00:29 -7.39460 112.93101 5274 ft 263 kts 64°
2026-04-29 00:30 -7.38490 112.94662 5967 ft 267 kts 55°
2026-04-29 00:30 -7.37746 112.95662 6428 ft 269 kts 53°
2026-04-29 00:30 -7.36203 112.97664 7283 ft 273 kts 53°
2026-04-29 00:30 -7.35033 112.99187 7926 ft 277 kts 53°
2026-04-29 00:31 -7.33870 113.00718 8572 ft 280 kts 53°
2026-04-29 00:31 -7.32684 113.02293 9206 ft 283 kts 53°
2026-04-29 00:31 -7.31492 113.03886 9843 ft 287 kts 53°
2026-04-29 00:31 -7.30274 113.05518 10339 ft 295 kts 53°
2026-04-29 00:32 -7.29438 113.06640 10510 ft 306 kts 53°
2026-04-29 00:32 -7.27727 113.08939 11123 ft 316 kts 53°
2026-04-29 00:32 -7.26740 113.10082 11402 ft 324 kts 41°
2026-04-29 00:32 -7.24805 113.11251 11940 ft 329 kts 21°
2026-04-29 00:33 -7.22584 113.11913 12438 ft 336 kts 15°
2026-04-29 00:33 -7.20296 113.12445 12932 ft 343 kts 13°
2026-04-29 00:33 -7.17958 113.12955 13469 ft 348 kts 13°
2026-04-29 00:33 -7.15556 113.13479 13959 ft 354 kts 13°
2026-04-29 00:34 -7.13147 113.14014 14468 ft 358 kts 13°
2026-04-29 00:34 -7.10699 113.14568 14980 ft 362 kts 13°
2026-04-29 00:34 -7.08226 113.15136 15567 ft 364 kts 14°
2026-04-29 00:34 -7.05764 113.15706 16128 ft 366 kts 14°
2026-04-29 00:35 -7.03290 113.16283 16776 ft 366 kts 14°
2026-04-29 00:35 -7.00791 113.16868 17460 ft 365 kts 14°
2026-04-29 00:35 -6.98317 113.17447 18135 ft 365 kts 14°
2026-04-29 00:35 -6.95858 113.18024 18605 ft 368 kts 14°
2026-04-29 00:36 -6.93336 113.18616 19066 ft 371 kts 14°
2026-04-29 00:36 -6.90815 113.19207 19538 ft 374 kts 14°
2026-04-29 00:36 -6.88288 113.19799 20015 ft 377 kts 14°
2026-04-29 00:36 -6.85738 113.20397 20484 ft 379 kts 14°
2026-04-29 00:37 -6.83145 113.21005 20931 ft 383 kts 14°
2026-04-29 00:37 -6.80556 113.21612 21388 ft 385 kts 14°
2026-04-29 00:37 -6.77923 113.22229 21874 ft 387 kts 14°
2026-04-29 00:37 -6.75296 113.22844 22275 ft 391 kts 14°
2026-04-29 00:38 -6.72649 113.23465 22703 ft 394 kts 14°
2026-04-29 00:38 -6.69960 113.24095 23144 ft 397 kts 14°
2026-04-29 00:38 -6.67274 113.24723 23572 ft 399 kts 14°
2026-04-29 00:38 -6.64545 113.25362 23974 ft 400 kts 14°
2026-04-29 00:39 -6.61840 113.25996 24294 ft 403 kts 14°
2026-04-29 00:39 -6.59114 113.26634 24635 ft 406 kts 14°
2026-04-29 00:39 -6.56336 113.27285 24984 ft 408 kts 14°
2026-04-29 00:39 -6.53575 113.27931 25340 ft 410 kts 14°
2026-04-29 00:40 -6.50813 113.28577 25683 ft 412 kts 14°
2026-04-29 00:40 -6.47998 113.29236 26018 ft 414 kts 14°
2026-04-29 00:40 -6.45196 113.29892 26347 ft 416 kts 14°
2026-04-29 00:40 -6.42376 113.30552 26676 ft 418 kts 14°
2026-04-29 00:41 -6.39546 113.31214 27007 ft 421 kts 14°
2026-04-29 00:41 -6.36681 113.31884 27329 ft 423 kts 14°
2026-04-29 00:41 -6.33786 113.32562 27638 ft 425 kts 14°
2026-04-29 00:41 -6.30919 113.33233 27957 ft 427 kts 14°
2026-04-29 00:42 -6.28026 113.33909 28258 ft 429 kts 14°
2026-04-29 00:42 -6.25128 113.34607 28551 ft 430 kts 17°
2026-04-29 00:42 -6.22321 113.35699 28835 ft 431 kts 26°
2026-04-29 00:42 -6.19627 113.37001 29124 ft 433 kts 27°
2026-04-29 00:43 -6.16918 113.38382 29402 ft 435 kts 28°
2026-04-29 00:43 -6.14239 113.39760 29662 ft 437 kts 28°
2026-04-29 00:43 -6.11503 113.41152 29944 ft 439 kts 27°
2026-04-29 00:43 -6.08791 113.42513 30170 ft 441 kts 27°
2026-04-29 00:44 -6.06046 113.43874 30400 ft 442 kts 27°
2026-04-29 00:44 -6.03284 113.45231 30622 ft 444 kts 27°
2026-04-29 00:44 -6.00485 113.46600 30826 ft 446 kts 27°
2026-04-29 00:44 -5.97712 113.47953 31018 ft 448 kts 27°
2026-04-29 00:45 -5.94883 113.49333 31238 ft 449 kts 27°
2026-04-29 00:45 -5.92070 113.50704 31435 ft 451 kts 27°
2026-04-29 00:45 -5.89223 113.52092 31628 ft 453 kts 27°
2026-04-29 00:45 -5.86402 113.53468 31823 ft 455 kts 27°
2026-04-29 00:46 -5.83538 113.54865 31988 ft 457 kts 27°
2026-04-29 00:46 -5.80683 113.56258 32173 ft 459 kts 27°
2026-04-29 00:46 -5.77793 113.57667 32402 ft 460 kts 27°
2026-04-29 00:46 -5.74935 113.59061 32581 ft 461 kts 27°
2026-04-29 00:47 -5.72022 113.60482 32739 ft 463 kts 27°
2026-04-29 00:47 -5.69128 113.61894 32918 ft 465 kts 27°
2026-04-29 00:47 -5.66230 113.63306 33086 ft 466 kts 27°
2026-04-29 00:47 -5.63293 113.64738 33240 ft 468 kts 27°
2026-04-29 00:48 -5.60368 113.66164 33416 ft 469 kts 27°
2026-04-29 00:48 -5.57453 113.67585 33614 ft 470 kts 27°
2026-04-29 00:48 -5.54477 113.69035 33783 ft 472 kts 27°
2026-04-29 00:48 -5.51522 113.70475 33920 ft 473 kts 27°
2026-04-29 00:49 -5.48564 113.71916 34102 ft 473 kts 27°
2026-04-29 00:49 -5.45633 113.73344 34346 ft 472 kts 27°
2026-04-29 00:49 -5.42668 113.74788 34617 ft 469 kts 27°
2026-04-29 00:49 -5.39760 113.76204 34849 ft 468 kts 27°
2026-04-29 00:50 -5.36819 113.77636 35074 ft 467 kts 27°
2026-04-29 00:50 -5.33910 113.79053 35284 ft 466 kts 27°
2026-04-29 00:50 -5.31010 113.80465 35523 ft 465 kts 27°
2026-04-29 00:50 -5.28117 113.81874 35747 ft 464 kts 27°
2026-04-29 00:51 -5.25200 113.83294 35932 ft 463 kts 27°
2026-04-29 00:51 -5.22315 113.84699 36130 ft 463 kts 27°
2026-04-29 00:51 -5.19395 113.86120 36325 ft 462 kts 28°
2026-04-29 00:51 -5.16531 113.87514 36518 ft 461 kts 28°
2026-04-29 00:52 -5.13654 113.88914 36691 ft 461 kts 28°
2026-04-29 00:52 -5.10744 113.90330 36845 ft 461 kts 28°
2026-04-29 00:52 -5.07869 113.91730 36900 ft 462 kts 28°
2026-04-29 00:53 -5.02080 113.94546 36906 ft 463 kts 28°
2026-04-29 00:53 -4.96305 113.97355 36910 ft 460 kts 28°
2026-04-29 00:54 -4.90577 114.00176 36907 ft 458 kts 28°
2026-04-29 00:54 -4.84904 114.03007 36910 ft 456 kts 28°
2026-04-29 00:55 -4.79228 114.05839 36907 ft 455 kts 28°
2026-04-29 00:55 -4.73562 114.08661 36907 ft 454 kts 28°
2026-04-29 00:56 -4.67904 114.11476 36909 ft 454 kts 28°
2026-04-29 00:56 -4.62243 114.14290 36908 ft 454 kts 28°
2026-04-29 00:57 -4.56570 114.17111 36909 ft 454 kts 28°
2026-04-29 00:57 -4.50934 114.19913 36911 ft 455 kts 28°
2026-04-29 00:58 -4.45251 114.22738 36911 ft 456 kts 28°
2026-04-29 00:58 -4.39575 114.25558 36910 ft 457 kts 28°
2026-04-29 00:59 -4.33942 114.28357 36911 ft 457 kts 28°
2026-04-29 00:59 -4.28234 114.31193 36910 ft 458 kts 28°
2026-04-29 01:00 -4.22512 114.34035 36911 ft 459 kts 28°
2026-04-29 01:00 -4.16813 114.36865 36910 ft 459 kts 28°
2026-04-29 01:01 -4.11081 114.39711 36908 ft 459 kts 28°
2026-04-29 01:01 -4.05358 114.42552 36909 ft 459 kts 28°
2026-04-29 01:02 -3.99642 114.45389 36902 ft 458 kts 28°
2026-04-29 01:02 -3.93963 114.48207 36907 ft 457 kts 28°
2026-04-29 01:03 -3.88269 114.51033 36909 ft 457 kts 28°
2026-04-29 01:03 -3.82566 114.53863 36900 ft 456 kts 28°
2026-04-29 01:04 -3.76909 114.56669 36901 ft 455 kts 28°
2026-04-29 01:04 -3.71360 114.59422 36896 ft 455 kts 28°
2026-04-29 01:05 -3.65691 114.62233 36894 ft 454 kts 28°
2026-04-29 01:05 -3.60023 114.65044 36889 ft 454 kts 28°
2026-04-29 01:06 -3.54385 114.67840 36884 ft 454 kts 28°
2026-04-29 01:06 -3.48712 114.70653 36887 ft 454 kts 28°
2026-04-29 01:07 -3.43222 114.73739 36877 ft 451 kts 39°
2026-04-29 01:07 -3.38661 114.78002 36886 ft 449 kts 47°
2026-04-29 01:08 -3.34295 114.82456 36891 ft 449 kts 47°
2026-04-29 01:08 -3.29903 114.86904 36886 ft 449 kts 46°
2026-04-29 01:09 -3.25490 114.91331 36888 ft 450 kts 46°
2026-04-29 01:09 -3.21089 114.95730 36893 ft 450 kts 46°
2026-04-29 01:10 -3.16660 115.00153 36888 ft 449 kts 46°
2026-04-29 01:10 -3.12232 115.04577 36897 ft 449 kts 46°
2026-04-29 01:11 -3.07805 115.08999 36893 ft 449 kts 46°
2026-04-29 01:11 -3.03406 115.13394 36900 ft 449 kts 46°
2026-04-29 01:12 -2.99081 115.17714 36897 ft 449 kts 46°
2026-04-29 01:12 -2.94613 115.22177 36904 ft 448 kts 46°
2026-04-29 01:13 -2.90203 115.26581 36902 ft 448 kts 46°
2026-04-29 01:13 -2.85791 115.30987 36907 ft 448 kts 46°
2026-04-29 01:14 -2.81383 115.35387 36912 ft 447 kts 46°
2026-04-29 01:14 -2.77000 115.39763 36907 ft 447 kts 46°
2026-04-29 01:15 -2.72584 115.44171 36919 ft 446 kts 46°
2026-04-29 01:15 -2.68207 115.48539 36918 ft 446 kts 46°
2026-04-29 01:16 -2.63800 115.52938 36919 ft 446 kts 46°
2026-04-29 01:16 -2.59438 115.57291 36918 ft 446 kts 46°
2026-04-29 01:17 -2.55035 115.61684 36920 ft 446 kts 46°
2026-04-29 01:17 -2.50641 115.66068 36923 ft 446 kts 46°
2026-04-29 01:18 -2.46252 115.70447 36932 ft 446 kts 46°
2026-04-29 01:18 -2.39777 115.76906 36926 ft 446 kts 46°
2026-04-29 01:19 -2.35397 115.81276 36927 ft 446 kts 46°
2026-04-29 01:19 -2.30998 115.85671 36925 ft 447 kts 46°
2026-04-29 01:20 -2.26631 115.90111 36932 ft 447 kts 47°
2026-04-29 01:20 -2.22302 115.94536 36929 ft 448 kts 47°
2026-04-29 01:21 -2.17922 115.99007 36922 ft 448 kts 47°
2026-04-29 01:21 -2.13558 116.03454 36924 ft 449 kts 47°
2026-04-29 01:22 -2.09197 116.07896 36924 ft 449 kts 47°
2026-04-29 01:22 -2.04827 116.12346 36929 ft 450 kts 47°
2026-04-29 01:23 -2.00416 116.16838 36922 ft 451 kts 47°
2026-04-29 01:23 -1.96018 116.21317 36924 ft 451 kts 47°
2026-04-29 01:24 -1.91646 116.25768 36926 ft 452 kts 47°
2026-04-29 01:24 -1.87241 116.30253 36925 ft 452 kts 47°
2026-04-29 01:25 -1.82827 116.34747 36925 ft 453 kts 47°
2026-04-29 01:25 -1.78419 116.39259 36922 ft 453 kts 50°
2026-04-29 01:26 -1.76558 116.41791 36926 ft 450 kts 61°
2026-04-29 01:26 -1.75133 116.44578 36929 ft 449 kts 68°
2026-04-29 01:26 -1.73015 116.50413 36920 ft 449 kts 73°
2026-04-29 01:27 -1.71144 116.56374 36912 ft 449 kts 73°
2026-04-29 01:27 -1.69231 116.62320 36911 ft 449 kts 72°
2026-04-29 01:28 -1.67266 116.68247 36910 ft 449 kts 72°
2026-04-29 01:28 -1.65295 116.74138 36907 ft 448 kts 72°
2026-04-29 01:29 -1.63316 116.80054 36903 ft 448 kts 72°
2026-04-29 01:29 -1.61343 116.85960 36902 ft 448 kts 72°
2026-04-29 01:30 -1.59704 116.90864 36899 ft 447 kts 72°
2026-04-29 01:30 -1.57411 116.97729 36901 ft 447 kts 72°
2026-04-29 01:31 -1.55442 117.03620 36901 ft 447 kts 72°
2026-04-29 01:31 -1.53419 117.09492 36896 ft 446 kts 71°
2026-04-29 01:32 -1.51676 117.14350 36892 ft 446 kts 71°
2026-04-29 01:32 -1.49575 117.20193 36894 ft 446 kts 71°
2026-04-29 01:33 -1.47490 117.26023 36894 ft 446 kts 71°
2026-04-29 01:33 -1.45406 117.31872 36895 ft 445 kts 71°
2026-04-29 01:34 -1.43328 117.37706 36898 ft 445 kts 71°
2026-04-29 01:34 -1.41266 117.43496 36899 ft 445 kts 71°
2026-04-29 01:35 -1.39189 117.49327 36903 ft 445 kts 71°
2026-04-29 01:35 -1.37110 117.55164 36900 ft 445 kts 71°
2026-04-29 01:36 -1.35031 117.60998 36905 ft 445 kts 71°
2026-04-29 01:36 -1.32953 117.66828 36906 ft 445 kts 71°
2026-04-29 01:37 -1.30878 117.72653 36909 ft 445 kts 70°
2026-04-29 01:37 -1.28811 117.78453 36911 ft 445 kts 71°
2026-04-29 01:38 -1.26730 117.84290 36911 ft 445 kts 71°
2026-04-29 01:38 -1.24650 117.90126 36912 ft 445 kts 70°
2026-04-29 01:39 -1.22571 117.95959 36913 ft 445 kts 70°
2026-04-29 01:39 -1.20505 118.01754 36914 ft 445 kts 70°
2026-04-29 01:40 -1.19462 118.04678 36686 ft 447 kts 70°
2026-04-29 01:40 -1.18425 118.07587 36434 ft 438 kts 70°
2026-04-29 01:40 -1.17411 118.10431 36174 ft 430 kts 70°
2026-04-29 01:40 -1.16412 118.13232 35928 ft 425 kts 70°
2026-04-29 01:41 -1.15424 118.16005 35693 ft 423 kts 70°
2026-04-29 01:41 -1.14451 118.18732 35465 ft 421 kts 70°
2026-04-29 01:41 -1.13467 118.21494 35229 ft 419 kts 71°
2026-04-29 01:41 -1.12490 118.24232 34996 ft 418 kts 70°
2026-04-29 01:42 -1.11515 118.26967 34764 ft 416 kts 70°
2026-04-29 01:42 -1.10545 118.29688 34537 ft 415 kts 71°
2026-04-29 01:42 -1.09575 118.32408 34312 ft 414 kts 71°
2026-04-29 01:42 -1.08622 118.35080 34093 ft 413 kts 71°
2026-04-29 01:43 -1.07655 118.37790 33861 ft 412 kts 71°
2026-04-29 01:43 -1.06695 118.40484 33610 ft 412 kts 71°
2026-04-29 01:43 -1.05737 118.43172 33359 ft 411 kts 71°
2026-04-29 01:43 -1.04777 118.45862 33108 ft 410 kts 71°
2026-04-29 01:44 -1.03820 118.48547 32857 ft 409 kts 71°
2026-04-29 01:44 -1.02891 118.51235 32603 ft 408 kts 74°
2026-04-29 01:44 -1.02290 118.53978 32286 ft 402 kts 84°
2026-04-29 01:44 -1.02040 118.56744 31939 ft 397 kts 85°
2026-04-29 01:45 -1.01834 118.59486 31557 ft 395 kts 86°
2026-04-29 01:45 -1.01635 118.62213 31180 ft 392 kts 86°
2026-04-29 01:45 -1.01433 118.64927 30803 ft 390 kts 85°
2026-04-29 01:45 -1.01228 118.67594 30419 ft 389 kts 85°
2026-04-29 01:46 -1.01015 118.70283 30048 ft 387 kts 85°
2026-04-29 01:46 -1.00800 118.72956 29603 ft 385 kts 85°
2026-04-29 01:46 -1.00582 118.75628 29192 ft 382 kts 85°
2026-04-29 01:46 -1.00366 118.78266 28785 ft 379 kts 85°
2026-04-29 01:47 -1.00151 118.80886 28395 ft 376 kts 85°
2026-04-29 01:47 -0.99939 118.83477 28012 ft 374 kts 85°
2026-04-29 01:47 -0.99726 118.86061 27627 ft 371 kts 85°
2026-04-29 01:47 -0.99519 118.88586 27258 ft 368 kts 85°
2026-04-29 01:48 -0.99310 118.91131 26882 ft 366 kts 85°
2026-04-29 01:48 -0.99103 118.93654 26508 ft 364 kts 85°
2026-04-29 01:48 -0.98896 118.96174 26139 ft 362 kts 85°
2026-04-29 01:48 -0.98692 118.98664 25773 ft 360 kts 85°
2026-04-29 01:49 -0.98488 119.01150 25398 ft 358 kts 85°
2026-04-29 01:49 -0.98284 119.03633 25039 ft 357 kts 85°
2026-04-29 01:49 -0.98081 119.06108 24659 ft 356 kts 85°
2026-04-29 01:49 -0.97878 119.08579 24288 ft 355 kts 85°
2026-04-29 01:50 -0.97676 119.11033 23914 ft 354 kts 85°
2026-04-29 01:50 -0.97477 119.13463 23551 ft 354 kts 85°
2026-04-29 01:50 -0.97276 119.15905 23133 ft 353 kts 85°
2026-04-29 01:50 -0.97076 119.18343 22750 ft 351 kts 85°
2026-04-29 01:51 -0.96878 119.20757 22375 ft 348 kts 85°
2026-04-29 01:51 -0.96679 119.23170 22010 ft 346 kts 85°
2026-04-29 01:51 -0.96450 119.25550 21723 ft 341 kts 84°
2026-04-29 01:51 -0.96167 119.27890 21395 ft 339 kts 83°
2026-04-29 01:52 -0.95867 119.30223 21049 ft 336 kts 83°
2026-04-29 01:52 -0.95568 119.32535 20704 ft 334 kts 83°
2026-04-29 01:52 -0.95274 119.34832 20360 ft 332 kts 83°
2026-04-29 01:52 -0.94984 119.37117 20025 ft 331 kts 83°
2026-04-29 01:53 -0.94702 119.39369 19689 ft 329 kts 83°
2026-04-29 01:53 -0.94419 119.41636 19348 ft 328 kts 83°
2026-04-29 01:53 -0.94139 119.43890 19001 ft 327 kts 83°
2026-04-29 01:53 -0.93860 119.46146 18653 ft 326 kts 83°
2026-04-29 01:54 -0.93580 119.48401 18316 ft 325 kts 83°
2026-04-29 01:54 -0.93306 119.50617 17933 ft 325 kts 83°
2026-04-29 01:54 -0.93030 119.52850 17579 ft 323 kts 83°
2026-04-29 01:54 -0.92756 119.55072 17222 ft 322 kts 83°
2026-04-29 01:55 -0.92482 119.57288 16886 ft 320 kts 83°
2026-04-29 01:55 -0.92210 119.59482 16541 ft 318 kts 84°
2026-04-29 01:55 -0.91938 119.61680 16225 ft 316 kts 84°
2026-04-29 01:55 -0.91669 119.63861 15892 ft 315 kts 84°
2026-04-29 01:56 -0.91404 119.66001 15557 ft 314 kts 84°
2026-04-29 01:56 -0.91134 119.68181 15190 ft 315 kts 84°
2026-04-29 01:56 -0.90866 119.70348 14867 ft 313 kts 84°
2026-04-29 01:56 -0.90599 119.72504 14540 ft 311 kts 84°
2026-04-29 01:57 -0.90334 119.74651 14209 ft 310 kts 84°
2026-04-29 01:57 -0.90071 119.76784 13907 ft 308 kts 84°
2026-04-29 01:57 -0.89810 119.78906 13579 ft 307 kts 83°
2026-04-29 01:57 -0.89547 119.81022 13216 ft 307 kts 83°
2026-04-29 01:58 -0.89229 119.83125 12880 ft 307 kts 75°
2026-04-29 01:58 -0.88280 119.84983 12623 ft 305 kts 52°
2026-04-29 01:58 -0.86642 119.86365 12277 ft 307 kts 29°
2026-04-29 01:58 -0.84616 119.86981 11981 ft 308 kts
2026-04-29 01:59 -0.82514 119.86804 11673 ft 309 kts 344°
2026-04-29 01:59 -0.80519 119.86023 11378 ft 307 kts 338°
2026-04-29 01:59 -0.78564 119.85147 11056 ft 307 kts 337°
2026-04-29 01:59 -0.76632 119.84263 10740 ft 305 kts 337°
2026-04-29 02:00 -0.74701 119.83383 10424 ft 304 kts 337°
2026-04-29 02:00 -0.72830 119.82395 10206 ft 301 kts 326°
2026-04-29 02:00 -0.71402 119.80913 10049 ft 296 kts 301°
2026-04-29 02:00 -0.70757 119.78996 9831 ft 293 kts 275°
2026-04-29 02:01 -0.71084 119.77038 9687 ft 284 kts 242°
2026-04-29 02:01 -0.72359 119.75602 9515 ft 278 kts 209°
2026-04-29 02:01 -0.74142 119.75104 9383 ft 263 kts 174°
2026-04-29 02:01 -0.75858 119.75544 9316 ft 244 kts 157°
2026-04-29 02:02 -0.77376 119.76147 9213 ft 231 kts 154°
2026-04-29 02:02 -0.78819 119.76792 9008 ft 225 kts 153°
2026-04-29 02:02 -0.80236 119.77447 8749 ft 221 kts 153°
2026-04-29 02:02 -0.81621 119.78095 8497 ft 219 kts 153°
2026-04-29 02:03 -0.82999 119.78742 8275 ft 220 kts 153°
2026-04-29 02:03 -0.84390 119.79399 8127 ft 221 kts 153°
2026-04-29 02:03 -0.85783 119.80063 8015 ft 221 kts 153°
2026-04-29 02:03 -0.87150 119.80711 8039 ft 215 kts 153°
2026-04-29 02:04 -0.88460 119.81407 7990 ft 214 kts 139°
2026-04-29 02:04 -0.89247 119.82646 7772 ft 220 kts 99°
2026-04-29 02:04 -0.89073 119.84189 7290 ft 232 kts 65°
2026-04-29 02:04 -0.88021 119.85387 6831 ft 238 kts 30°
2026-04-29 02:05 -0.86433 119.85818 6591 ft 232 kts 13°
2026-04-29 02:05 -0.85076 119.86570 6188 ft 228 kts 51°
2026-04-29 02:05 -0.84484 119.88079 5230 ft 251 kts 90°
2026-04-29 02:05 -0.85099 119.89713 4816 ft 255 kts 132°
2026-04-29 02:06 -0.86577 119.90575 4707 ft 244 kts 165°
2026-04-29 02:06 -0.88208 119.90542 4595 ft 233 kts 201°
2026-04-29 02:06 -0.89409 119.89554 4459 ft 224 kts 239°
2026-04-29 02:06 -0.89721 119.88094 4304 ft 214 kts 281°
2026-04-29 02:07 -0.89011 119.86838 4009 ft 210 kts 323°
2026-04-29 02:07 -0.87798 119.86071 3704 ft 209 kts 330°
2026-04-29 02:07 -0.86555 119.85323 3572 ft 211 kts 330°
2026-04-29 02:07 -0.85291 119.84561 3542 ft 210 kts 330°
2026-04-29 02:08 -0.84045 119.83805 3527 ft 208 kts 330°
2026-04-29 02:08 -0.82805 119.83053 3519 ft 209 kts 330°
2026-04-29 02:08 -0.81553 119.82295 3515 ft 210 kts 330°
2026-04-29 02:08 -0.80303 119.81541 3511 ft 209 kts 330°
2026-04-29 02:09 -0.79088 119.80808 3485 ft 198 kts 330°
2026-04-29 02:09 -0.77944 119.80114 3497 ft 188 kts 330°
2026-04-29 02:09 -0.76819 119.79451 3508 ft 188 kts 334°
2026-04-29 02:09 -0.75656 119.78880 3514 ft 189 kts 335°
2026-04-29 02:10 -0.74445 119.78371 3492 ft 189 kts 353°
2026-04-29 02:10 -0.73245 119.78682 3511 ft 179 kts 44°
2026-04-29 02:10 -0.72576 119.79709 3528 ft 179 kts 65°
2026-04-29 02:10 -0.72269 119.80915 3488 ft 183 kts 93°
2026-04-29 02:11 -0.72588 119.82130 3468 ft 181 kts 118°
2026-04-29 02:11 -0.73525 119.82972 3262 ft 188 kts 158°
2026-04-29 02:11 -0.74721 119.83419 3045 ft 185 kts 156°
2026-04-29 02:11 -0.75890 119.83907 2788 ft 177 kts 156°
2026-04-29 02:12 -0.76996 119.84383 2504 ft 170 kts 155°
2026-04-29 02:12 -0.78062 119.84849 2226 ft 164 kts 154°
2026-04-29 02:12 -0.79109 119.85311 1979 ft 164 kts 155°
2026-04-29 02:12 -0.80136 119.85765 1755 ft 158 kts 155°
2026-04-29 02:13 -0.81140 119.86211 1575 ft 159 kts 155°
2026-04-29 02:13 -0.82155 119.86661 1434 ft 160 kts 155°
2026-04-29 02:13 -0.83167 119.87109 1333 ft 161 kts 155°
2026-04-29 02:13 -0.84139 119.87519 1418 ft 145 kts 155°
2026-04-29 02:14 -0.85094 119.87942 1342 ft 151 kts 153°
2026-04-29 02:14 -0.86029 119.88386 1264 ft 148 kts 153°
2026-04-29 02:14 -0.86990 119.88809 1087 ft 153 kts 155°
2026-04-29 02:14 -0.87952 119.89238 951 ft 151 kts 154°
2026-04-29 02:15 -0.88903 119.89680 756 ft 151 kts 154°
2026-04-29 02:15 -0.89878 119.90099 520 ft 154 kts 155°
2026-04-29 02:15 -0.90863 119.90531 294 ft 153 kts 153°
2026-04-29 02:15 -0.91738 119.90919 264 ft 118 kts 156°
2026-04-29 02:16 -0.92346 119.91189 231 ft 68 kts 154°
2026-04-29 02:16 -0.92495 119.91266 222 ft 7 kts 154°
2026-04-29 02:16 -0.92523 119.91256 219 ft 1 kts 236°
2026-04-29 02:16 -0.92521 119.91252 225 ft 1 kts 294°
2026-04-29 02:17 -0.92514 119.91249 225 ft 2 kts 329°
2026-04-29 02:17 -0.92487 119.91235 223 ft 7 kts 332°
2026-04-29 02:17 -0.92423 119.91206 223 ft 13 kts 337°
2026-04-29 02:17 -0.92327 119.91170 233 ft 15 kts 340°
2026-04-29 02:18 -0.92223 119.91127 238 ft 18 kts 333°
2026-04-29 02:18 -0.92103 119.91073 248 ft 20 kts 336°
2026-04-29 02:18 -0.91964 119.91012 253 ft 23 kts 336°
2026-04-29 02:18 -0.91870 119.90934 259 ft 14 kts 265°
2026-04-29 02:19 -0.91886 119.90881 256 ft 12 kts 263°
2026-04-29 02:19 -0.91829 119.90830 262 ft 9 kts 332°
2026-04-29 02:19 -0.91792 119.90769 263 ft 13 kts 289°
2026-04-29 02:19 -0.91751 119.90735 265 ft 0 kts 323°
2026-04-29 02:20 -0.91751 119.90733 265 ft 1 kts 290°
2026-04-29 02:20 -0.91754 119.90727 265 ft 1 kts 246°
2026-04-29 02:20 -0.91758 119.90717 263 ft 1 kts 248°
2026-04-29 02:20 -0.91763 119.90704 261 ft 1 kts 249°
2026-04-29 02:21 -0.91766 119.90697 261 ft 1 kts 253°
2026-04-29 02:21 -0.91766 119.90696 261 ft 0 kts 253°